TimeMST,TemperatureF,Dew PointF,Humidity,Sea Level PressureIn,VisibilityMPH,Wind Direction,Wind SpeedMPH,Gust SpeedMPH,PrecipitationIn,Events,Conditions,WindDirDegrees,DateUTC
1:51 AM,27.0,19.9,75,30.00,10.0,ESE,5.8,-,N/A,,Clear,120,2012-11-24 08:51:00
2:51 AM,26.1,19.9,78,29.97,10.0,ESE,4.6,-,N/A,,Clear,120,2012-11-24 09:51:00
3:51 AM,25.0,19.0,78,29.97,10.0,SSE,4.6,-,N/A,,Clear,150,2012-11-24 10:51:00
4:51 AM,24.1,18.0,77,29.95,10.0,Calm,Calm,-,N/A,,Clear,0,2012-11-24 11:51:00
5:51 AM,24.1,18.0,77,29.95,10.0,SSE,3.5,-,N/A,,Clear,150,2012-11-24 12:51:00
6:51 AM,25.0,19.0,78,29.95,10.0,Calm,Calm,-,N/A,,Clear,0,2012-11-24 13:51:00
8:51 AM,39.0,24.1,55,29.95,10.0,West,10.4,-,N/A,,Overcast,280,2012-11-24 15:51:00
9:51 AM,41.0,25.0,53,29.95,10.0,West,12.7,-,0.00,,Overcast,270,2012-11-24 16:51:00
10:51 AM,43.0,27.0,53,29.94,10.0,West,11.5,-,0.00,Rain,Light Rain,270,2012-11-24 17:51:00
11:51 AM,43.0,30.9,62,29.93,10.0,WNW,13.8,-,0.00,Rain,Light Rain,290,2012-11-24 18:51:00
12:51 PM,43.0,35.1,74,29.92,10.0,West,11.5,-,0.00,Rain,Light Rain,280,2012-11-24 19:51:00
1:51 PM,44.1,33.1,65,29.92,10.0,WNW,15.0,-,0.00,,Overcast,300,2012-11-24 20:51:00
2:51 PM,42.1,33.1,70,29.94,10.0,WNW,11.5,-,0.00,Rain,Light Rain,290,2012-11-24 21:51:00
3:51 PM,39.9,33.1,77,29.98,10.0,WNW,8.1,-,0.00,,Overcast,300,2012-11-24 22:51:00
4:51 PM,39.0,30.9,73,30.00,10.0,WNW,11.5,-,N/A,,Overcast,300,2012-11-24 23:51:00
5:51 PM,35.1,28.0,76,30.03,10.0,WNW,8.1,-,N/A,,Overcast,300,2012-11-25 00:51:00
6:51 PM,32.0,27.0,82,30.03,10.0,West,8.1,-,N/A,,Partly Cloudy,280,2012-11-25 01:51:00
7:51 PM,30.0,26.1,85,30.04,10.0,WNW,10.4,-,N/A,,Clear,290,2012-11-25 02:51:00
9:44 PM,28.4,24.8,86,29.97,10.0,WNW,9.2,-,N/A,,Scattered Clouds,290,2012-11-25 04:44:00
10:51 PM,28.9,25.0,85,30.06,10.0,WNW,11.5,-,N/A,,Mostly Cloudy,290,2012-11-25 05:51:00
11:51 PM,28.9,25.0,85,30.06,10.0,NNW,11.5,-,N/A,,Overcast,330,2012-11-25 06:51:00